• In Uzbekistan
  • List of Countries
  • For 7 days
  • Water Temperature
  • Satellite Maps
  • Weather Map
  • Weather Widgets
  • user-avatar
    Login

    Hourly Weather Artashat

    Today, 5 December, Monday

    Time Temperature Precipitation Wind Pressure Humidity
    00:00 -4°C° 0 mm 2 mps 602 mmHg 74%
    01:00 -4°C° 0 mm 2 mps 602 mmHg 74%
    02:00 -5°C° 0 mm 2 mps 601 mmHg 74%
    03:00 -4°C° 0 mm 2 mps 601 mmHg 72%
    04:00 -4°C° 0 mm 2 mps 601 mmHg 72%
    05:00 -4°C° 0 mm 2 mps 601 mmHg 73%
    06:00 -4°C° 0 mm 2 mps 601 mmHg 73%
    07:00 -4°C° 0.1 mm 2 mps 601 mmHg 70%
    08:00 -3°C° 0.1 mm 2 mps 601 mmHg 68%
    09:00 -2°C° 0.1 mm 2 mps 602 mmHg 65%
    10:00 -1°C° 0.1 mm 2 mps 601 mmHg 63%
    11:00 +1°C° 0.1 mm 2 mps 601 mmHg 60%
    12:00 +1°C° 0.1 mm 2 mps 601 mmHg 57%
    13:00 +1°C° 0.1 mm 2 mps 601 mmHg 59%
    14:00 +1°C° 0.1 mm 2 mps 600 mmHg 60%
    15:00 +1°C° 0.1 mm 2 mps 600 mmHg 61%
    16:00 -1°C° 0.1 mm 2 mps 600 mmHg 64%
    17:00 -2°C° 0.1 mm 2 mps 599 mmHg 68%
    18:00 -2°C° 0.1 mm 2 mps 599 mmHg 72%
    19:00 -3°C° 0.1 mm 2 mps 599 mmHg 73%
    20:00 -3°C° 0.1 mm 2 mps 599 mmHg 74%
    21:00 -3°C° 0.1 mm 2 mps 599 mmHg 75%
    22:00 -3°C° 0.2 mm 2 mps 599 mmHg 76%
    23:00 -3°C° 0.2 mm 2 mps 599 mmHg 77%

    Tomorrow, 6 December, Tuesday

    Time Temperature Precipitation Wind Pressure Humidity
    00:00 -4°C° 0.2 mm 2 mps 599 mmHg 77%
    01:00 -4°C° 0.3 mm 2 mps 599 mmHg 77%
    02:00 -5°C° 0.3 mm 3 mps 599 mmHg 77%
    03:00 -6°C° 0.3 mm 3 mps 599 mmHg 77%
    04:00 -7°C° 0.2 mm 3 mps 599 mmHg 74%
    05:00 -8°C° 0.2 mm 4 mps 599 mmHg 71%
    06:00 -9°C° 0.2 mm 4 mps 599 mmHg 68%
    07:00 -9°C° 0.1 mm 4 mps 599 mmHg 64%
    08:00 -10°C° 0.1 mm 4 mps 600 mmHg 61%
    09:00 -10°C° 0.1 mm 4 mps 600 mmHg 58%
    10:00 -10°C° 0 mm 4 mps 601 mmHg 54%
    11:00 -9°C° 0 mm 4 mps 601 mmHg 51%
    12:00 -9°C° 0 mm 4 mps 602 mmHg 47%
    13:00 -8°C° 0 mm 3 mps 602 mmHg 47%
    14:00 -8°C° 0 mm 3 mps 601 mmHg 47%
    15:00 -7°C° 0 mm 2 mps 601 mmHg 47%
    16:00 -8°C° 0 mm 2 mps 601 mmHg 50%
    17:00 -10°C° 0 mm 2 mps 601 mmHg 54%
    18:00 -10°C° 0 mm 1 mps 600 mmHg 57%
    19:00 -10°C° 0 mm 1 mps 601 mmHg 56%
    20:00 -10°C° 0 mm 1 mps 601 mmHg 56%
    21:00 -10°C° 0 mm 1 mps 601 mmHg 55%
    22:00 -10°C° 0 mm 1 mps 601 mmHg 55%
    23:00 -13°C° 0 mm 2 mps 601 mmHg 55%

    Day after tomorrow, 7 December, Wednesday

    Time Temperature Precipitation Wind Pressure Humidity
    00:00 -13°C° 0 mm 2 mps 601 mmHg 54%
    01:00 -13°C° 0 mm 2 mps 600 mmHg 54%
    02:00 -13°C° 0 mm 2 mps 600 mmHg 53%
    03:00 -13°C° 0 mm 2 mps 600 mmHg 52%
    04:00 -13°C° 0 mm 2 mps 600 mmHg 51%
    05:00 -13°C° 0 mm 2 mps 599 mmHg 50%
    06:00 -13°C° 0 mm 2 mps 599 mmHg 49%
    07:00 -12°C° 0 mm 2 mps 600 mmHg 47%
    08:00 -10°C° 0 mm 2 mps 600 mmHg 46%
    09:00 -8°C° 0 mm 2 mps 601 mmHg 44%
    10:00 -7°C° 0 mm 2 mps 601 mmHg 42%
    11:00 -6°C° 0 mm 2 mps 601 mmHg 41%
    12:00 -4°C° 0 mm 2 mps 601 mmHg 40%
    13:00 -4°C° 0 mm 2 mps 600 mmHg 42%
    14:00 -5°C° 0 mm 2 mps 600 mmHg 45%
    15:00 -5°C° 0 mm 2 mps 599 mmHg 48%
    16:00 -6°C° 0 mm 2 mps 599 mmHg 49%
    17:00 -8°C° 0 mm 2 mps 599 mmHg 50%
    18:00 -10°C° 0 mm 2 mps 598 mmHg 50%
    19:00 -10°C° 0 mm 2 mps 598 mmHg 49%
    20:00 -10°C° 0 mm 2 mps 598 mmHg 48%
    21:00 -10°C° 0 mm 2 mps 598 mmHg 47%
    22:00 -10°C° 0 mm 2 mps 598 mmHg 47%
    23:00 -12°C° 0 mm 2 mps 598 mmHg 47%

    8 December, Thursday

    Time Temperature Precipitation Wind Pressure Humidity
    00:00 -12°C° 0 mm 2 mps 598 mmHg 47%
    01:00 -12°C° 0 mm 2 mps 598 mmHg 48%
    02:00 -12°C° 0 mm 2 mps 598 mmHg 49%
    03:00 -12°C° 0 mm 2 mps 599 mmHg 50%
    04:00 -12°C° 0 mm 2 mps 599 mmHg 50%
    05:00 -12°C° 0 mm 2 mps 599 mmHg 51%
    06:00 -12°C° 0 mm 2 mps 599 mmHg 51%
    07:00 -10°C° 0 mm 2 mps 600 mmHg 51%
    08:00 -8°C° 0 mm 1 mps 601 mmHg 51%
    09:00 -8°C° 0 mm 1 mps 602 mmHg 51%
    10:00 -8°C° 0 mm 2 mps 602 mmHg 49%
    11:00 -7°C° 0 mm 2 mps 602 mmHg 47%
    12:00 -6°C° 0 mm 2 mps 603 mmHg 45%
    13:00 -6°C° 0 mm 2 mps 602 mmHg 46%
    14:00 -7°C° 0 mm 2 mps 602 mmHg 47%
    15:00 -7°C° 0 mm 2 mps 602 mmHg 49%
    16:00 -8°C° 0 mm 1 mps 601 mmHg 53%
    17:00 -10°C° 0 mm 1 mps 600 mmHg 57%
    18:00 -11°C° 0 mm 1 mps 600 mmHg 61%
    19:00 -12°C° 0 mm 1 mps 600 mmHg 61%
    20:00 -12°C° 0 mm 1 mps 600 mmHg 62%
    21:00 -12°C° 0 mm 1 mps 600 mmHg 62%
    22:00 -12°C° 0 mm 1 mps 600 mmHg 63%
    23:00 -12°C° 0 mm 1 mps 600 mmHg 63%

    9 December, Friday

    Time Temperature Precipitation Wind Pressure Humidity
    00:00 -13°C° 0 mm 1 mps 600 mmHg 63%
    01:00 -13°C° 0 mm 1 mps 600 mmHg 64%
    02:00 -13°C° 0 mm 1 mps 600 mmHg 64%
    03:00 -13°C° 0 mm 1 mps 600 mmHg 64%
    04:00 -13°C° 0 mm 1 mps 600 mmHg 64%
    05:00 -14°C° 0 mm 1 mps 600 mmHg 64%
    06:00 -14°C° 0 mm 1 mps 600 mmHg 64%
    07:00 -12°C° 0 mm 1 mps 601 mmHg 61%
    08:00 -11°C° 0 mm 1 mps 602 mmHg 58%
    09:00 -10°C° 0 mm 1 mps 602 mmHg 54%
    10:00 -9°C° 0 mm 1 mps 602 mmHg 50%
    11:00 -7°C° 0 mm 1 mps 602 mmHg 46%
    12:00 -6°C° 0 mm 1 mps 603 mmHg 41%
    13:00 -6°C° 0 mm 1 mps 602 mmHg 44%
    14:00 -6°C° 0 mm 1 mps 602 mmHg 46%
    15:00 -6°C° 0 mm 1 mps 602 mmHg 48%
    16:00 -8°C° 0 mm 1 mps 601 mmHg 51%
    17:00 -9°C° 0 mm 1 mps 600 mmHg 54%
    18:00 -11°C° 0 mm 1 mps 600 mmHg 58%
    19:00 -11°C° 0 mm 1 mps 600 mmHg 57%
    20:00 -11°C° 0 mm 1 mps 600 mmHg 56%
    21:00 -11°C° 0 mm 1 mps 600 mmHg 55%
    22:00 -11°C° 0 mm 1 mps 599 mmHg 55%
    23:00 -11°C° 0 mm 1 mps 599 mmHg 54%

    10 December, Saturday

    Time Temperature Precipitation Wind Pressure Humidity
    00:00 -11°C° 0 mm 1 mps 599 mmHg 54%
    01:00 -11°C° 0 mm 1 mps 599 mmHg 53%
    02:00 -11°C° 0 mm 1 mps 598 mmHg 52%
    03:00 -11°C° 0 mm 1 mps 598 mmHg 51%
    04:00 -11°C° 0 mm 1 mps 598 mmHg 50%
    05:00 -11°C° 0 mm 1 mps 598 mmHg 50%
    06:00 -11°C° 0 mm 1 mps 597 mmHg 49%
    07:00 -10°C° 0 mm 1 mps 598 mmHg 47%
    08:00 -8°C° 0 mm 1 mps 598 mmHg 45%
    09:00 -7°C° 0 mm 1 mps 599 mmHg 43%
    10:00 -6°C° 0 mm 1 mps 599 mmHg 42%
    11:00 -3°C° 0 mm 1 mps 599 mmHg 40%
    12:00 -2°C° 0 mm 1 mps 598 mmHg 39%
    13:00 -4°C° 0 mm 2 mps 598 mmHg 42%
    14:00 -4°C° 0 mm 2 mps 597 mmHg 45%
    15:00 -4°C° 0 mm 2 mps 597 mmHg 48%
    16:00 -5°C° 0 mm 2 mps 596 mmHg 50%
    17:00 -7°C° 0 mm 2 mps 596 mmHg 51%
    18:00 -8°C° 0 mm 2 mps 595 mmHg 53%
    19:00 -8°C° 0 mm 2 mps 596 mmHg 53%
    20:00 -8°C° 0 mm 2 mps 596 mmHg 53%
    21:00 -8°C° 0 mm 2 mps 596 mmHg 54%
    22:00 -8°C° 0 mm 2 mps 596 mmHg 54%
    23:00 -8°C° 0 mm 2 mps 596 mmHg 53%
    Show more